Home > Weather > Kalispell > Past weeks

Flag for USA Past Weather in Kalispell, Montana, USA — Yesterday and Last 2 Weeks

Now
43 °F

Overcast.


Feels Like: 43 °F
Forecast: 41 / 66 °F
Wind: No wind

Location: Kalispell - Glacier Park International

Current Time: May 25, 2016 at 5:21:51 AM

Latest Report: May 25, 2016 at 4:55 AM


Visibility: 10 mi

Pressure: 29.95 "Hg (26.82 "Hg at 902m altitude)

Humidity: 100%

Dew Point: 43 °F

Location of KalispellLocation

Past Weather in Kalispell — Graph

°F

Kalispell Temperature Yesterday

Maximum temperature yesterday: 60 °F (at 3:55 PM)
Minimum temperature yesterday: 42 °F (at 11:55 PM)
Average temperature yesterday: 50 °F

High & Low Weather Summary for the Past Weeks

 TemperatureHumidityPressure
High76 °F (May 18, 3:55 PM)100% (May 17, 1:55 AM)30.40 "Hg (May 17, 1:55 AM)
Low36 °F (May 11, 3:55 AM)22% (May 15, 1:55 PM)29.62 "Hg (May 19, 2:55 AM)
Average52 °F70%29.97 "Hg
* Reported May 10 3:55 AM — May 25 3:55 AM, Kalispell, Weather by CustomWeather, © 2016

Note: Actual official high and low records may vary slightly from our data, if they occured in-between our weather recording intervals... More about our weather records

Advertising

Kalispell Weather History for the Previous 24 Hours

Scroll right to see more
 ConditionsComfort  
Time TempWeatherWind HumidityBarometerVisibility
3:55 AM
Wed, May 25
44 °FOvercast.No wind100%29.95 "Hg10 mi
2:55 AM43 °FOvercast.No wind100%29.94 "Hg10 mi
1:55 AM42 °FOvercast.No wind100%29.95 "Hg10 mi
12:55 AM41 °FPassing clouds.No wind100%29.95 "Hg10 mi
11:55 PM
Tue, May 24
42 °FClear.No wind100%29.94 "Hg10 mi
10:55 PM44 °FClear.No wind100%29.94 "Hg10 mi
9:55 PM49 °FSunny.3 mph77%29.91 "Hg10 mi
8:55 PM53 °FSunny.5 mph72%29.90 "Hg10 mi
7:55 PM58 °FSunny.7 mph56%29.89 "Hg10 mi
6:55 PM60 °FScattered clouds.8 mph52%29.89 "Hg10 mi
5:55 PM59 °FSunny.3 mph49%29.90 "Hg10 mi
4:55 PM60 °FPassing clouds.3 mph47%29.90 "Hg10 mi
3:55 PM60 °FSunny.5 mph47%29.90 "Hg10 mi
2:55 PM58 °FSunny.5 mph51%29.92 "Hg10 mi
1:55 PM55 °FSunny.5 mph59%29.93 "Hg10 mi
12:55 PM51 °FMore clouds than sun.No wind69%29.94 "Hg10 mi
11:55 AM51 °FOvercast.No wind71%29.94 "Hg10 mi
10:55 AM50 °FOvercast.No wind74%29.94 "Hg10 mi
10:02 AM50 °FMostly cloudy.3 mph77%29.92 "Hg10 mi
9:02 AM47 °FMostly cloudy.No wind90%29.93 "Hg10 mi
7:55 AM45 °FOvercast.No wind97%29.94 "Hg10 mi
6:55 AM45 °FOvercast.3 mph97%29.94 "Hg10 mi
5:55 AM44 °FLow clouds.3 mph100%29.94 "Hg10 mi
Weather by CustomWeather, © 2016

See weather overviewHow to use our weather pages